[[{"header":{"parameterUnit":"m.s-1","parameterCategory":1,"la1":30.2992,"la2":30.254,"lo1":-89.0895,"lo2":-89.0443,"dy":0.0025,"dx":0.0025,"nx":19,"ny":19,"refTime":"2026-03-21T03:00:00:Z","depth":0,"parameterNumber":2,"parameterNumberName":"U-component_of_WINDS"},"data":[0,0,0,3.3114,3.312,3.3373,3.3374,3.3696,3.3699,0,0,0,0,0,0,0,0,0,0,0,3.3038,3.304,3.3114,3.312,3.3373,3.3374,3.3695,3.3699,0,0,0,0,0,0,0,0,0,0,0,3.3037,3.304,3.3043,3.3121,3.3373,3.3374,3.3694,3.3504,0,0,0,0,0,0,0,0,0,0,3.3259,3.3188,3.3039,3.3043,3.3123,3.3373,3.3374,3.3495,3.3516,3.358,0,3.3637,0,3.3673,3.372,3.3721,0,0,0,3.3121,3.317,3.3239,3.3043,3.3125,3.3372,3.3259,3.3507,3.3531,3.3608,3.3641,3.3653,3.3678,3.3722,3.3724,3.4086,3.4088,0,0,3.3107,3.3084,3.3223,3.3254,3.3215,3.3251,3.3267,3.3521,3.3556,3.3643,3.3661,3.3683,3.3724,3.3727,3.4085,3.4087,0,0,0,3.3066,3.3074,3.3137,3.3241,3.3287,3.3258,3.3277,3.3545,3.3567,3.3664,3.3687,3.3726,3.373,3.4083,3.4085,3.4141,0,0,0,3.3058,3.305,3.313,3.3118,3.3282,3.3419,3.3295,3.355,3.3579,3.3685,3.3726,3.3733,3.4081,3.4084,3.4135,3.4171,0,0,0,3.3022,3.3046,3.3082,3.3117,3.3224,3.3416,3.3453,3.3557,3.3593,3.3721,3.3734,3.408,3.4084,3.4131,3.4163,3.4256,0,0,0,3.2977,3.313,3.3082,3.3262,3.3222,3.3449,3.3451,3.3622,3.3739,3.3728,3.4081,3.4085,3.4129,3.4158,3.4251,3.4328,3.4359,0,0,3.3157,3.3151,3.3259,3.3223,3.3451,3.3412,3.3649,3.378,3.3815,3.3994,3.4003,3.4137,3.4162,3.4255,3.4545,3.4569,0,0,0,3.3307,3.3384,3.345,3.3559,3.3661,3.375,3.3847,3.3895,3.4047,3.3902,3.4199,3.4214,3.427,3.4307,3.4328,3.4375,3.4103,3.4102,3.4102,3.3527,3.3561,3.374,3.3804,3.391,3.4006,3.4095,3.4176,3.4182,3.4251,3.4304,3.4475,3.4519,3.4535,3.4583,3.435,3.4351,3.4351,3.4351,3.379,3.3902,3.3905,3.4078,3.4114,3.426,3.4359,3.4357,3.4498,3.444,3.449,3.442,3.456,3.4604,3.4356,3.4355,3.4354,3.4354,3.4353,3.3935,3.3995,3.4049,3.4208,3.4327,3.4388,3.4521,3.455,3.4578,3.4628,3.4685,3.4684,3.4683,3.4654,3.4654,3.4655,3.4655,3.4656,3.4656,3.4063,3.4123,3.4231,3.4351,3.4422,3.4521,3.4618,3.469,3.4776,3.4786,3.4787,3.4783,3.4568,3.4511,3.4666,3.4664,3.4663,3.4662,3.4661,3.4312,3.4259,3.4427,3.4499,3.4639,3.4753,3.4788,3.4931,3.4995,3.5059,3.5046,3.4883,3.4879,3.4863,3.4816,3.504,3.504,3.504,3.504,3.4431,3.4432,3.4608,3.472,3.4834,3.4881,3.5068,3.5144,3.5215,3.5256,3.5228,3.5169,3.5152,3.5158,3.5136,3.5092,3.5381,3.5382,3.5382,3.4584,3.4597,3.475,3.4817,3.4929,3.5023,3.5199,3.5327,3.5397,3.5396,3.5288,3.5273,3.5178,3.5147,3.5141,3.5106,3.5026,0,0]},{"header":{"parameterUnit":"m.s-1","parameterCategory":1,"la1":30.2992,"la2":30.254,"lo1":-89.0895,"lo2":-89.0443,"dy":0.0025,"dx":0.0025,"nx":19,"ny":19,"refTime":"2026-03-21T03:00:00:Z","depth":0,"parameterNumber":3,"parameterNumberName":"V-component_of_WINDS"},"data":[0,0,0,1.8819,1.882,1.8847,1.8847,1.889,1.8891,0,0,0,0,0,0,0,0,0,0,0,1.8818,1.8819,1.8819,1.882,1.8847,1.8847,1.889,1.8891,0,0,0,0,0,0,0,0,0,0,0,1.8818,1.8818,1.8819,1.882,1.8847,1.8847,1.889,1.8867,0,0,0,0,0,0,0,0,0,0,1.8839,1.8845,1.8818,1.8819,1.882,1.8846,1.8847,1.8865,1.8868,1.8883,0,1.8898,0,1.8895,1.8894,1.8894,0,0,0,1.8815,1.8842,1.8843,1.8819,1.8821,1.8846,1.8833,1.8867,1.887,1.8886,1.8898,1.89,1.8896,1.8895,1.8895,1.8994,1.8995,0,0,1.8814,1.8827,1.8841,1.8846,1.8843,1.8832,1.8834,1.8868,1.8882,1.8898,1.89,1.8896,1.8895,1.8895,1.8994,1.8995,0,0,0,1.8813,1.8826,1.8826,1.8844,1.8848,1.8833,1.8835,1.8881,1.888,1.8901,1.8897,1.8895,1.8896,1.8993,1.8994,1.9039,0,0,0,1.8812,1.8825,1.8825,1.8833,1.8848,1.8865,1.8847,1.8877,1.8881,1.8897,1.8895,1.8896,1.8992,1.8993,1.9036,1.9059,0,0,0,1.8814,1.8825,1.8831,1.8834,1.8846,1.8864,1.8865,1.8878,1.8879,1.8895,1.8897,1.8992,1.8993,1.9034,1.9055,1.9088,0,0,0,1.882,1.8873,1.8832,1.8889,1.8846,1.8892,1.8864,1.8899,1.8918,1.8896,1.8992,1.8994,1.9033,1.9052,1.9085,1.9117,1.9132,0,0,1.8893,1.8882,1.8914,1.8878,1.8935,1.8887,1.895,1.8956,1.8947,1.8979,1.8981,1.9037,1.9054,1.9087,1.9212,1.9224,0,0,0,1.8941,1.8964,1.8976,1.8995,1.9,1.9006,1.9001,1.9003,1.9029,1.8966,1.9058,1.9068,1.9087,1.9101,1.9111,1.9126,1.9001,1.9001,1.9001,1.9063,1.9046,1.9097,1.9084,1.9102,1.9095,1.9108,1.9109,1.9089,1.911,1.912,1.9197,1.9215,1.9223,1.9238,1.9136,1.9136,1.9136,1.9137,1.9167,1.9197,1.9166,1.9205,1.9187,1.9219,1.9214,1.9198,1.9225,1.919,1.9205,1.9168,1.9236,1.9249,1.914,1.9139,1.9139,1.9139,1.9138,1.9244,1.9255,1.9256,1.9279,1.9299,1.9283,1.9309,1.9293,1.9277,1.9292,1.93,1.9299,1.9295,1.9297,1.9297,1.9298,1.9298,1.9298,1.9298,1.9324,1.9323,1.9348,1.9356,1.9364,1.9373,1.9365,1.9372,1.9376,1.9362,1.9362,1.9338,1.9246,1.9223,1.9302,1.9302,1.9301,1.9301,1.93,1.9436,1.9407,1.9445,1.9453,1.946,1.9479,1.9457,1.9473,1.9477,1.949,1.9463,1.9398,1.9385,1.9377,1.9358,1.9467,1.9467,1.9467,1.9467,1.95,1.9492,1.9525,1.9539,1.955,1.9533,1.9575,1.9568,1.9557,1.9558,1.954,1.9513,1.9506,1.9497,1.9487,1.9468,1.9603,1.9603,1.9603,1.9567,1.9558,1.9598,1.9586,1.9589,1.9592,1.963,1.9647,1.9629,1.9608,1.9559,1.9553,1.9509,1.9496,1.9475,1.9458,1.9424,0,0]}]]